Regional Weather Roundup
Issued by NWS

Home | Current Version | Previous Version | Text Only | Print | Product List | Glossary Off
Versions: 1 2 3 4 5 6 7 8 9 10 11 12 13 14 15 16 17 18 19 20 21 22 23 24 25 26 27 28 29 30 31 32 33 34 35 36 37 38 39 40 41 42 43 44 45 46 47 48 49 50

000
ASUS43 KLOT 231509
RWRIL

ILLINOIS REGIONAL WEATHER ROUNDUP
NATIONAL WEATHER SERVICE CHICAGO/ROMEOVILLE IL
1000 AM CDT TUE MAY 23 2017

NOTE: "FAIR" INDICATES FEW OR NO CLOUDS BELOW 12,000 FEET WITH NO
SIGNIFICANT WEATHER AND/OR OBSTRUCTIONS TO VISIBILITY.

* THESE STATIONS ARE NOT UNDER NWS QUALITY CONTROL. THEY ALSO MAY NOT
  REPORT WEATHER SUCH AS PRECIPITATION OR FOG.

ILZ001-002-007-009-015-016-024-231600-
NORTHWEST ILLINOIS

CITY           SKY/WX    TMP DP  RH WIND       PRES   REMARKS
MOLINE         CLOUDY    59  53  80 W7        29.78S
STERLING*      CLOUDY    59  55  87 VRB3      29.80R
SAVANNA*       CLOUDY    58  53  84 W5        29.78S
$$

ILZ003-004-008-010-011-017-018-231600-
NORTH CENTRAL ILLINOIS

CITY           SKY/WX    TMP DP  RH WIND       PRES   REMARKS
ROCKFORD       CLOUDY    61  53  75 S10       29.80F
FREEPORT*      CLOUDY    57  53  85 SW8       29.80S
ROCHELLE*      CLOUDY    59  55  87 SW12      29.81S
DE KALB*       CLOUDY    58  56  92 S13       29.82S
PERU*          RAIN      56  54  91 S10       29.82S
$$

ILZ005-006-012>014-019>023-231600-
NORTHEAST ILLINOIS

CITY           SKY/WX    TMP DP  RH WIND       PRES   REMARKS
CHICAGO-OHARE  LGT RAIN  59  55  87 SW10      29.81S
CHICAGO-MIDWAY LGT RAIN  59  56  89 W9        29.82F
AURORA         CLOUDY    58  56  93 S6        29.82S
LANSING*       LGT RAIN  59  57  95 W7        29.83F
WAUKEGAN       CLOUDY    60  53  77 SW10      29.80S
DUPAGE AIRPORT LGT RAIN  57  56  96 S8        29.80F
KANKAKEE*      CLOUDY    63  55  75 CALM      29.84S
WHEELING       LGT RAIN  59  57  93 SW6       29.82S
MORRIS*        CLOUDY    58  56  92 CALM      29.81F
ROMEOVILLE*    DRIZZLE   57  57  97 SW6       29.83S
NORTHERLY ISL    N/A     59  54  83 SW7         N/A
$$

LMZ740>746-231600-
SOUTHERN LAKE MICHIGAN

STATION/POSITION SKY/WX   TEMP    WIND        PRES    VSBY  WAVE
                          AIR SEA DIR/SP/G                  HT/PER
                          (F)     (DEG/KT/KT) (MB)    (MI)  (FT/S)
SOUTHERN BUOY              48 45  180/ 10/ 12 1009.6F         1
WILMETTE HARBOR            57 54                N/A           1/ 2
HARRISON CRIB              60     260/ 14/ 16   N/A
BURNHAM HARBOR             59     250/  5/ 14   N/A
CALUMET HARBOR             59     240/  8/ 11 1009.5F
BURNS HARBOR               59     250/ 10/ 13 1010.5S
MICHIGAN CITY              59     240/ 11/ 11   N/A
MICHIGAN CITY 6N           56 53  240/  6/  8   N/A           1
ST. JOSEPH                 57 56  230/  4/  6 1010.7          1/ 3
$$

ILZ025>027-034>036-040-047-049-050-058-095>099-231600-
WEST-CENTRAL ILLINOIS

CITY           SKY/WX    TMP DP  RH WIND       PRES   REMARKS
QUINCY         LGT RAIN  59  57  93 W6        29.80F
GALESBURG*     CLOUDY    56  56  99 S7        29.79S
MACOMB*        CLOUDY    57  57  98 SW8       29.83S
JACKSONVILLE*  LGT RAIN  58  55  89 CALM      29.81F
PITTSFIELD*    LGT RAIN  58  57  97 CALM      29.81F
$$

ILZ028>032-037-038-041>044-048-051>054-059>061-231600-
CENTRAL ILLINOIS

CITY           SKY/WX    TMP DP  RH WIND       PRES   REMARKS
PONTIAC        RAIN      58  58  98 CALM      29.83S
BLOOMINGTON    CLOUDY    58  55  91 NE6       29.83F
DECATUR        CLOUDY    63  55  75 NE6       29.81F
PEORIA         RAIN      57  55  93 SW5       29.81F FOG
LACON*         LGT RAIN  57  56  99 S3        29.80F
LINCOLN*       CLOUDY    60  57  88 CALM      29.82F
SPRINGFIELD    CLOUDY    62  57  83 N6        29.81F
TAYLORVILLE    CLOUDY    63  54  73 N3        29.80F
$$

ILZ033-039-045-046-055>057-062-063-231600-
EAST-CENTRAL ILLINOIS

CITY           SKY/WX    TMP DP  RH WIND       PRES   REMARKS
CHAMPAIGN      CLOUDY    64  53  67 E3        29.82F
RANTOUL*       MOSUNNY   65  57  75 N5        29.83S
MATTOON        PTSUNNY   65  55  70 S7        29.80F
PARIS*         CLOUDY    66  53  63 SE6       29.83S
$$

ILZ079-100>102-231600-
SOUTHWEST ILLINOIS

CITY           SKY/WX    TMP DP  RH WIND       PRES   REMARKS
ALTON          CLOUDY    66  55  68 CALM      29.79F
BELLEVILLE     CLOUDY    67  56  68 CALM      29.79F
CAHOKIA*       CLOUDY    69  53  56 CALM      29.78F
SPARTA*        CLOUDY    67  55  64 S3        29.80F
$$

ILZ064>066-069>071-074>076-080>082-084>086-088>090-092>094-231600-
SOUTH-CENTRAL ILLINOIS

CITY           SKY/WX    TMP DP  RH WIND       PRES   REMARKS
CARBONDALE     MOSUNNY   68  57  68 VRB5      29.79F
CAIRO*         CLOUDY    69  55  61 S3        29.78F
EFFINGHAM*     CLOUDY    66  58  73 SE5       29.82F
MARION         PTSUNNY   70  55  60 S6        29.80F
MT. VERNON       N/A     70  56  61 VRB3      29.80F
CENTRALIA*     MOSUNNY   69  56  62 S5        29.79F
SALEM*         CLOUDY    68  55  64 W3        29.80F
METROPOLIS*    CLOUDY    71  56  58 CALM      29.79F
$$

ILZ067-068-072-073-078-083-087-091-231600-
SOUTHEAST ILLINOIS

CITY           SKY/WX    TMP DP  RH WIND       PRES   REMARKS
LAWRENCEVILLE  CLOUDY    67  51  56 SE6       29.82F
FLORA*         CLOUDY    70  55  59 S8        29.81F
FAIRFIELD*     SUNNY     67  55  64 S5        29.80F
HARRISBURG*    MOSUNNY   69  56  63 CALM      29.80F
ROBINSON*      CLOUDY    67  52  60 S5        29.82F
CARMI*         MOSUNNY   68  53  57 SE3       29.80F
$$

ABBREVIATIONS USED IN REMARKS
   TC - TEMPERATURE IN CELSIUS
  WCI - WIND CHILL INDEX
   HX - HEAT INDEX
  VSB - VISIBILITY
$$




USA.gov is the U.S. government's official web portal to all federal, state and local government web resources and services.